Location: St. Louis
(38.6270°N, 90.1994°W)
Time: 17:35:11
(UTC-06:00)

Vanguard 2 Rocket - Visible Passes

Search period start: 29 November 2021 00:00
Search period end: 09 December 2021 00:00
Orbit: 555 x 3324 km, 32.9° (Epoch: 29 November)

Date Brightness Start Highest point End Pass type
(mag) Time Alt. Az. Time Alt. Az. Time Alt. Az.
29 Nov 10.6 02:34:49 21° S 02:34:49 21° S 02:41:09 10° SSE visible
29 Nov 8.3 18:30:47 10° SW 18:37:16 43° SSE 18:41:30 30° ESE visible
29 Nov 8.9 20:42:12 10° WSW 20:47:16 43° WSW 20:47:16 43° WSW visible
30 Nov 10.8 01:38:20 16° SSE 01:38:20 16° SSE 01:41:16 10° SSE visible
30 Nov 10.8 03:44:06 12° SSW 03:44:06 12° SSW 03:47:04 10° SSW visible
30 Nov 8.5 17:32:34 10° SSW 17:37:45 29° SE 17:44:59 12° E visible
30 Nov 8.2 19:43:04 10° WSW 19:50:45 62° SSE 19:50:45 62° SSE visible
30 Nov 10.1 21:55:25 10° W 21:56:31 15° W 21:56:31 15° W visible
01 Dec 10.8 02:47:35 14° SSW 02:47:35 14° SSW 02:51:00 10° S visible
01 Dec 8.1 18:44:12 10° SW 18:50:41 52° SSE 18:54:14 37° ESE visible
01 Dec 9.1 20:55:59 10° W 21:00:00 35° WSW 21:00:00 35° WSW visible
02 Dec 10.9 01:50:59 12° S 01:50:59 12° S 01:52:11 10° SSE visible
02 Dec 8.1 17:45:38 10° SW 17:51:01 38° SSE 17:57:43 16° E visible
02 Dec 8.2 19:56:48 10° WSW 20:03:29 62° SSW 20:03:29 62° SSW visible
03 Dec 7.9 18:57:49 10° WSW 19:04:16 58° S 19:06:58 45° ESE visible
03 Dec 9.4 21:09:50 10° W 21:12:45 26° WSW 21:12:45 26° WSW visible
04 Dec 7.8 17:59:04 10° SW 18:04:28 47° SSE 18:10:28 20° E visible
04 Dec 8.3 20:10:37 10° W 20:16:14 53° SW 20:16:14 53° SW visible
05 Dec 8.0 17:00:32 10° SW 17:05:01 34° SSE 17:11:52 10° E visible
05 Dec 7.8 19:11:35 10° WSW 19:17:57 60° S 19:19:46 52° SE visible
05 Dec 9.7 21:23:45 10° W 21:25:32 19° W 21:25:32 19° W visible
06 Dec 7.6 18:12:42 10° WSW 18:18:05 54° S 18:23:17 24° ESE visible
06 Dec 8.6 20:24:28 10° W 20:29:04 42° WSW 20:29:04 42° WSW visible
07 Dec 7.6 17:13:58 10° SW 17:18:32 43° SSE 17:25:43 10° E visible
07 Dec 7.9 19:25:24 10° W 19:31:41 57° S 19:32:38 54° SSE visible
07 Dec 10.0 21:37:48 10° W 21:38:24 13° W 21:38:24 13° W visible
08 Dec 7.6 18:26:27 10° WSW 18:31:48 55° S 18:36:13 28° ESE visible
08 Dec 9.0 20:38:26 10° W 20:42:00 31° WSW 20:42:00 31° WSW visible
